DLH902 EDDF-EHAM

Flight info

Callsign DLH902
Flight time N/A
Altitude 24000
Route MARUN3W/25C MARUN Y152 ARPEG Z850 ABILU DCT NORKU
Aircraft A320/M-SDE3FGHIRWY/LB1

Departure

Time 2026-05-05 18:11
Airport Frankfurt Main Airport (EDDF)

Arrival

Time N/A
Airport Amsterdam Airport Schiphol (EHAM)
Time Latitude Longitude Altitude Speed Heading
2026-05-05 17:46 50.04439 8.56329 356 ft 0 kts 168°
2026-05-05 17:56 50.04445 8.56327 356 ft 2 kts 169°
2026-05-05 17:56 50.04464 8.56323 349 ft 3 kts 178°
2026-05-05 17:56 50.04484 8.56324 354 ft 3 kts 194°
2026-05-05 17:56 50.04501 8.56335 353 ft 3 kts 229°
2026-05-05 17:57 50.04507 8.56348 352 ft 0 kts 250°
2026-05-05 18:01 50.04505 8.56340 345 ft 4 kts 250°
2026-05-05 18:01 50.04487 8.56258 345 ft 12 kts 251°
2026-05-05 18:02 50.04456 8.56133 355 ft 12 kts 249°
2026-05-05 18:02 50.04426 8.56038 348 ft 8 kts 226°
2026-05-05 18:02 50.04386 8.56031 345 ft 7 kts 165°
2026-05-05 18:02 50.04330 8.56062 349 ft 8 kts 160°
2026-05-05 18:03 50.04294 8.56100 351 ft 4 kts 129°
2026-05-05 18:03 50.04285 8.56144 351 ft 8 kts 101°
2026-05-05 18:03 50.04247 8.56202 348 ft 12 kts 159°
2026-05-05 18:03 50.04146 8.56264 351 ft 16 kts 137°
2026-05-05 18:04 50.04155 8.56398 353 ft 13 kts 69°
2026-05-05 18:04 50.04201 8.56586 353 ft 23 kts 70°
2026-05-05 18:04 50.04255 8.56819 353 ft 23 kts 69°
2026-05-05 18:04 50.04312 8.57053 348 ft 23 kts 70°
2026-05-05 18:05 50.04369 8.57287 345 ft 23 kts 70°
2026-05-05 18:05 50.04425 8.57525 348 ft 24 kts 70°
2026-05-05 18:05 50.04481 8.57761 348 ft 21 kts 69°
2026-05-05 18:05 50.04510 8.57883 347 ft 8 kts 70°
2026-05-05 18:06 50.04524 8.57940 348 ft 3 kts 69°
2026-05-05 18:06 50.04524 8.57941 348 ft 0 kts 69°
2026-05-05 18:06 50.04533 8.57977 351 ft 10 kts 69°
2026-05-05 18:06 50.04574 8.58146 354 ft 23 kts 70°
2026-05-05 18:07 50.04632 8.58391 350 ft 25 kts 69°
2026-05-05 18:07 50.04651 8.58548 347 ft 8 kts 112°
2026-05-05 18:07 50.04640 8.58561 352 ft 0 kts 153°
2026-05-05 18:08 50.04639 8.58562 345 ft 2 kts 153°
2026-05-05 18:08 50.04593 8.58588 351 ft 10 kts 159°
2026-05-05 18:08 50.04518 8.58626 347 ft 13 kts 182°
2026-05-05 18:09 50.04473 8.58526 351 ft 0 kts 249°
2026-05-05 18:10 50.04469 8.58507 352 ft 11 kts 250°
2026-05-05 18:10 50.04347 8.58001 349 ft 85 kts 249°
2026-05-05 18:10 50.04072 8.56853 352 ft 139 kts 250°
2026-05-05 18:10 50.03678 8.55226 447 ft 173 kts 249°
2026-05-05 18:11 50.03255 8.53469 1065 ft 175 kts 249°
2026-05-05 18:11 50.02832 8.51690 1784 ft 175 kts 250°
2026-05-05 18:11 50.02307 8.50017 2439 ft 175 kts 236°
2026-05-05 18:11 50.01477 8.48629 3068 ft 177 kts 218°
2026-05-05 18:12 50.00382 8.47705 3692 ft 178 kts 199°
2026-05-05 18:12 49.99186 8.47313 4345 ft 176 kts 190°
2026-05-05 18:12 49.97993 8.47113 5050 ft 169 kts 187°
2026-05-05 18:12 49.96848 8.46956 5757 ft 160 kts 188°
2026-05-05 18:13 49.95790 8.46725 6454 ft 148 kts 196°
2026-05-05 18:13 49.94829 8.46362 7015 ft 143 kts 193°
2026-05-05 18:13 49.93714 8.45990 6995 ft 178 kts 196°
2026-05-05 18:13 49.92493 8.45385 7246 ft 194 kts 209°
2026-05-05 18:14 49.91392 8.43984 7455 ft 218 kts 232°
2026-05-05 18:14 49.90716 8.41791 7899 ft 234 kts 257°
2026-05-05 18:14 49.90727 8.39238 8613 ft 243 kts 282°
2026-05-05 18:14 49.91510 8.36894 9371 ft 252 kts 310°
2026-05-05 18:15 49.92977 8.35324 10141 ft 262 kts 334°
2026-05-05 18:15 49.94664 8.34221 10871 ft 264 kts 334°
2026-05-05 18:15 49.96367 8.33132 11602 ft 267 kts 334°
2026-05-05 18:15 49.98097 8.32026 12318 ft 270 kts 334°
2026-05-05 18:16 49.99841 8.30905 12749 ft 274 kts 334°
2026-05-05 18:16 50.01632 8.29747 12850 ft 291 kts 334°
2026-05-05 18:16 50.03567 8.28529 12864 ft 306 kts 340°
2026-05-05 18:16 50.05697 8.28327 13426 ft 319 kts
2026-05-05 18:17 50.07851 8.29281 14088 ft 324 kts 16°
2026-05-05 18:17 50.09999 8.30384 14738 ft 327 kts 17°
2026-05-05 18:17 50.12162 8.31532 15380 ft 330 kts 18°
2026-05-05 18:17 50.14343 8.32700 16021 ft 333 kts 19°
2026-05-05 18:18 50.16541 8.33873 16659 ft 336 kts 19°
2026-05-05 18:18 50.18768 8.35060 17299 ft 339 kts 19°
2026-05-05 18:18 50.21015 8.36256 17932 ft 342 kts 19°
2026-05-05 18:18 50.23268 8.37450 18496 ft 345 kts 19°
2026-05-05 18:19 50.25544 8.38647 19044 ft 348 kts 19°